Theta_e
325 322 321 321 321 316 319 314 301 301 302 295 294 296 297 303 304 301 301 303 301 304 305 305 304 307 305 302 303 304 302 301 300 296 297 303 319 334 335 339 342 342 342 345 347 348 348 349 350 350 348 346 345 345 345 345 345 345 344 344 344 344 344 344 343 343 343 342 341 342 341 342 344 345 346 345 344 342 341 341 339 339 338 338 342 339 340 340 339 341 345 345 344 344 343 342 341
324 322 320 321 316 317 312 310 298 296 294 291 296 298 299 303 300 299 299 301 301 304 303 304 304 305 305 303 303 306 306 313 309 307 315 324 329 333 335 342 342 341 342 345 347 347 346 348 350 350 347 346 345 345 345 346 345 345 345 343 344 345 344 344 343 343 342 342 342 342 342 343 346 346 346 345 346 343 343 345 343 341 340 341 342 341 341 341 342 343 344 343 343 342 341 340 340
323 318 317 315 312 313 310 306 298 292 292 290 294 298 302 301 300 300 301 304 306 305 303 305 305 305 304 304 304 304 301 312 316 318 320 325 327 328 338 342 343 343 343 345 347 347 347 347 349 349 347 345 345 345 345 346 345 345 345 344 344 344 343 344 343 343 343 343 343 343 342 344 345 346 346 345 345 344 345 345 345 345 345 345 346 346 345 345 345 344 343 343 342 341 340 340 339
316 314 314 310 305 308 301 299 294 292 291 291 292 299 301 300 300 302 303 304 303 303 305 307 304 308 304 303 304 310 309 308 314 319 320 322 324 330 340 342 343 343 344 346 346 346 346 347 348 348 347 346 345 345 346 346 345 345 345 346 344 344 343 343 343 343 343 343 343 343 343 346 345 345 345 345 344 344 344 345 344 345 345 345 345 345 345 345 345 344 343 341 341 341 340 340 339
311 311 315 306 304 305 302 297 294 292 294 292 292 299 303 303 303 304 304 304 303 303 304 305 303 306 308 305 306 305 308 312 319 322 319 324 327 337 341 343 343 343 343 345 346 345 345 346 346 346 347 347 345 345 346 345 345 345 346 346 346 345 344 344 344 344 342 343 343 343 345 346 346 345 345 344 344 344 344 344 344 344 344 344 345 345 344 344 343 343 342 341 340 340 340 340 339
308 306 311 309 303 306 300 296 294 294 299 298 296 299 302 304 304 306 306 306 306 304 305 304 305 305 309 311 313 314 320 307 320 323 323 324 332 342 342 342 342 342 343 345 345 344 345 345 344 345 346 347 345 346 346 346 346 346 346 346 346 346 346 346 345 346 344 344 343 344 346 346 344 345 344 345 345 344 343 343 344 343 343 344 344 345 344 344 344 343 342 341 340 339 338 339 338
306 303 304 306 304 301 293 291 292 294 300 301 300 303 304 305 306 306 305 306 308 306 306 307 304 306 308 314 314 320 324 324 324 324 327 327 337 342 342 342 342 341 343 344 344 344 343 343 344 345 346 347 345 346 346 346 346 346 346 346 346 346 346 346 346 345 346 345 346 344 345 345 344 345 344 344 343 344 343 343 344 343 343 343 344 343 343 342 342 343 342 341 340 339 338 338 337
313 301 301 296 294 294 291 291 294 294 298 301 303 303 305 307 308 306 305 304 304 305 307 306 304 303 307 313 309 317 326 327 327 328 328 331 338 340 341 342 340 341 342 343 343 343 345 342 343 344 346 347 347 346 346 347 347 347 347 346 346 346 346 346 346 345 346 346 345 344 343 344 344 344 343 345 344 344 343 343 343 343 343 343 343 343 343 342 341 342 342 340 339 339 338 337 336
302 303 302 296 294 293 289 290 292 295 297 299 305 306 311 306 306 307 306 306 305 304 305 307 305 300 305 314 313 317 322 329 330 332 330 331 333 338 341 341 340 340 341 342 342 342 342 342 342 342 344 345 347 347 347 347 347 347 347 347 346 346 346 346 346 346 346 346 345 344 344 344 344 344 343 343 344 343 342 342 342 343 343 343 344 343 343 343 342 341 341 340 339 338 338 337 336
298 300 294 294 291 291 290 288 291 293 297 299 300 304 304 302 302 304 306 306 306 306 305 305 307 305 311 311 310 318 321 329 330 330 330 329 329 335 339 340 341 340 340 341 341 341 341 343 341 341 342 343 345 346 347 348 348 347 347 347 346 346 346 346 346 346 346 346 345 344 344 344 344 344 344 342 343 342 343 342 341 342 342 343 344 344 343 343 342 342 341 340 339 339 338 336 336
290 295 298 293 288 286 289 288 290 294 295 298 299 300 301 301 302 302 304 307 306 304 306 305 307 311 316 316 318 324 328 330 329 327 330 331 330 334 336 340 341 341 340 339 340 340 340 341 342 339 340 341 344 345 346 347 347 347 347 348 347 346 346 346 345 346 346 345 345 344 344 343 343 342 343 341 342 343 343 342 341 340 340 342 343 343 343 342 342 341 340 339 339 339 338 337 336
290 291 294 286 286 286 286 288 291 293 295 296 296 299 300 300 302 300 301 304 304 305 309 310 303 314 313 314 317 322 328 329 328 329 332 332 332 332 335 338 339 340 340 339 339 339 339 340 340 341 338 338 340 342 343 344 346 346 346 347 347 346 346 346 346 346 345 345 344 344 344 343 343 342 342 341 340 341 343 342 341 340 339 340 342 342 342 341 341 341 340 340 339 338 338 337 336
288 290 287 285 284 287 288 290 289 296 291 294 295 298 300 299 299 301 301 310 310 308 310 316 308 315 311 315 319 320 326 328 330 331 332 333 332 335 339 339 339 340 340 339 339 338 337 338 339 339 338 337 338 339 340 342 344 345 344 345 345 346 346 346 346 346 345 346 345 344 344 343 343 342 342 341 340 342 342 340 341 340 339 339 341 341 340 341 342 341 340 339 339 338 338 337 336
293 290 288 286 285 286 287 286 288 290 289 293 297 298 299 299 300 301 301 307 308 309 313 316 321 318 312 314 312 316 321 327 330 331 333 333 334 337 339 339 338 339 338 338 337 337 337 337 338 336 336 337 335 338 338 339 341 343 342 342 344 344 345 344 344 344 344 344 343 343 343 343 342 341 341 340 338 338 338 338 338 341 339 338 338 338 338 337 338 340 340 339 339 338 338 337 336
294 292 286 285 283 284 286 288 287 288 289 294 296 297 297 300 299 301 299 300 302 310 316 316 316 311 304 309 309 315 322 327 329 331 332 332 332 335 336 337 337 337 337 338 337 337 337 336 336 334 334 334 335 336 336 338 337 339 339 340 341 341 341 340 339 341 340 340 340 340 341 342 341 340 340 339 337 337 338 336 335 339 339 339 338 337 337 337 336 337 338 339 339 338 338 337 336
295 290 286 283 283 283 286 287 288 287 290 294 296 296 296 298 299 298 300 301 300 305 312 309 319 311 313 312 314 321 325 328 329 330 330 329 330 331 332 335 336 336 334 336 336 335 336 336 334 334 334 333 334 335 336 334 335 335 336 337 338 337 337 337 335 335 336 336 336 337 337 338 338 338 339 337 336 336 338 334 333 336 341 340 339 338 337 337 336 336 336 336 337 338 337 337 337
293 289 282 280 280 283 288 287 288 286 291 292 295 294 292 293 297 300 302 303 299 299 305 311 313 320 315 318 322 324 326 327 327 328 327 326 325 327 327 329 332 332 336 333 334 336 335 336 335 334 334 334 334 334 335 336 336 334 333 334 334 334 334 334 332 330 330 331 331 332 334 334 330 333 337 334 335 335 331 329 330 334 338 340 340 339 338 338 338 337 336 335 335 336 337 337 336
288 284 280 281 283 287 289 289 290 293 290 292 293 293 292 291 294 298 301 299 299 300 300 302 303 304 310 314 322 326 327 327 326 326 324 323 321 321 323 324 328 330 329 331 334 335 336 336 336 335 334 335 334 338 339 339 338 334 333 333 332 333 332 332 332 330 335 327 328 332 332 332 329 328 331 335 331 333 331 327 328 330 333 335 339 339 339 338 338 337 336 335 335 335 335 332 331
287 281 281 281 285 290 293 293 293 291 291 292 292 293 291 292 293 297 296 295 296 296 298 300 300 301 303 304 307 311 310 311 313 314 313 313 317 322 324 323 325 326 327 330 333 336 336 337 336 336 335 335 335 334 337 338 338 336 335 334 333 331 333 333 331 331 328 327 326 329 329 330 327 326 329 330 329 326 331 327 327 329 330 332 335 337 337 337 338 339 338 338 336 334 333 325 326
291 287 284 286 291 291 293 293 292 293 293 292 291 293 291 293 293 296 294 293 295 294 295 297 297 298 300 302 304 304 304 304 305 304 304 304 305 306 308 312 320 324 327 330 333 336 336 336 336 337 336 336 336 335 335 335 334 334 334 334 334 333 331 330 327 327 326 325 326 326 326 327 326 326 331 334 334 329 327 325 325 326 327 329 331 335 335 335 336 336 336 335 334 330 326 324 325
291 289 285 288 291 289 291 292 291 292 293 292 291 291 292 294 292 293 292 292 292 294 297 296 297 298 300 301 302 302 302 302 303 303 303 302 303 304 305 306 308 316 322 327 328 333 335 336 336 337 337 336 336 335 334 334 334 332 333 334 335 334 332 331 329 327 326 324 324 324 324 323 325 324 324 325 326 325 323 325 326 326 325 324 327 329 330 332 334 329 329 330 321 324 323 325 327
290 288 290 290 290 288 292 291 291 290 291 290 290 291 291 293 292 293 293 290 290 293 296 298 299 299 298 298 299 300 300 300 301 301 301 301 301 302 303 304 306 308 311 315 319 323 328 334 336 337 337 337 337 337 336 335 335 333 332 333 333 333 332 331 330 328 326 325 324 324 323 322 322 322 322 322 324 323 322 322 323 323 321 322 325 328 327 328 328 327 326 326 323 323 324 325 327
285 287 289 290 290 289 291 291 290 289 289 290 289 291 291 291 291 292 293 291 293 295 296 298 297 297 297 298 298 298 298 298 299 300 300 300 300 301 301 302 302 303 305 306 309 313 317 325 330 335 337 337 337 337 337 335 335 335 333 332 332 331 330 330 329 328 327 326 325 324 323 322 321 320 320 320 322 322 322 321 321 321 321 321 323 327 327 327 327 326 326 327 325 322 323 324 325
287 284 287 289 289 289 289 289 288 288 289 289 290 292 290 289 290 291 292 293 294 296 297 296 296 296 296 295 295 296 297 297 298 299 300 300 300 300 300 301 301 302 303 304 305 307 309 313 327 331 334 336 337 337 337 336 336 335 334 332 332 331 330 329 329 328 328 327 326 325 323 323 322 320 320 319 319 321 322 322 321 321 321 321 321 325 326 326 325 325 326 327 326 323 323 323 324
286 285 287 288 288 289 289 289 287 288 289 289 289 289 287 289 290 292 291 293 295 295 296 295 295 294 294 294 294 294 295 296 297 298 299 300 300 300 300 301 301 301 301 302 304 305 307 309 316 321 327 330 334 335 336 337 336 335 334 333 332 329 330 330 330 329 328 327 326 325 323 322 321 321 320 319 318 319 320 322 321 321 321 321 320 321 322 323 323 323 323 324 325 323 322 322 322
287 287 287 286 287 288 289 289 288 288 290 290 290 288 289 290 291 290 291 293 295 295 294 294 293 293 293 293 293 294 294 294 295 296 297 299 299 298 299 300 300 300 301 301 302 303 305 307 309 311 314 321 327 331 334 334 334 332 333 333 333 329 330 330 330 329 329 328 327 326 325 323 323 322 321 320 319 319 318 320 321 321 321 321 320 319 319 319 321 320 320 320 321 321 321 321 320
289 288 287 286 288 288 289 288 288 288 289 289 288 287 287 291 290 285 290 292 293 292 292 292 292 291 292 292 293 293 293 294 294 296 297 297 298 297 298 299 299 300 301 301 301 302 304 305 306 308 310 314 320 321 325 329 332 331 332 333 333 332 331 329 329 328 328 328 327 326 326 324 323 322 321 321 319 319 319 319 320 321 321 321 320 320 319 318 318 319 319 319 318 318 319 319 318
288 288 287 287 289 290 290 290 289 289 288 289 287 286 288 289 288 286 288 291 292 290 290 290 290 290 291 292 292 293 293 294 295 295 294 295 296 297 297 298 298 299 300 300 301 303 303 303 304 305 307 310 312 315 317 321 326 330 330 332 333 333 331 330 328 328 326 327 327 326 326 326 323 323 322 321 321 320 319 318 319 320 321 321 320 320 319 319 318 318 318 319 318 317 317 317 317
287 287 285 286 289 288 289 288 288 288 288 290 288 286 284 284 283 287 289 290 290 289 289 289 290 290 290 291 292 292 293 294 294 294 294 296 297 298 297 298 298 299 300 301 301 302 302 303 304 304 305 307 308 308 312 316 320 325 329 330 331 331 331 330 329 328 328 327 327 326 326 326 324 323 322 322 321 321 320 319 318 318 320 321 320 320 319 319 318 317 317 317 317 317 316 316 316
288 288 283 285 284 285 288 290 289 288 289 289 287 275 279 282 285 287 288 289 289 288 288 289 289 290 290 290 291 292 293 293 293 294 294 295 296 297 297 297 299 299 299 300 301 300 302 303 303 304 305 304 306 306 307 309 314 317 323 326 328 331 331 329 329 329 327 328 327 327 326 325 324 324 323 322 321 321 320 319 318 318 318 319 319 320 319 318 318 318 317 315 315 315 316 316 315
282 285 286 279 277 279 286 287 288 287 289 288 288 276 277 282 285 287 288 289 288 287 287 288 288 289 290 290 290 291 292 293 293 294 294 295 295 296 296 297 297 298 299 299 299 300 300 301 302 301 303 303 303 304 304 306 308 310 313 317 321 324 329 330 329 330 330 328 329 327 326 326 325 325 324 323 321 320 320 319 318 318 318 318 319 319 319 318 318 317 317 315 315 314 315 315 315
282 279 277 277 278 279 283 289 287 283 286 288 286 277 278 282 284 287 288 288 288 286 286 287 287 288 289 289 290 290 291 292 293 293 294 294 294 294 295 295 296 296 297 297 298 299 298 300 301 300 300 300 301 303 304 305 305 308 310 313 314 319 322 326 329 330 330 330 328 326 325 326 326 326 325 324 323 322 321 321 321 319 318 318 319 319 319 318 317 317 317 317 315 314 313 314 314
279 278 276 276 278 278 279 287 287 286 285 286 285 278 280 281 284 286 287 287 287 286 286 286 287 287 288 289 289 290 290 291 292 293 293 293 294 294 294 294 294 295 296 296 296 296 297 298 299 298 298 299 300 301 302 303 304 305 306 308 311 313 316 320 325 329 329 328 328 328 326 325 325 325 326 325 324 323 322 322 321 320 320 318 319 319 319 319 317 317 316 316 317 315 314 314 314
276 277 277 278 277 279 278 283 288 286 285 281 283 280 279 281 283 285 287 287 286 285 285 286 286 287 288 288 289 289 289 290 290 292 292 293 293 293 293 296 294 294 294 295 295 295 295 296 297 298 297 297 298 299 300 302 303 304 304 305 308 310 312 317 322 326 328 329 328 327 327 326 324 325 325 326 325 325 324 323 323 321 320 319 318 319 319 319 318 317 316 316 316 316 314 314 314
275 276 276 276 277 279 279 279 284 283 283 281 281 280 280 281 284 285 286 287 286 285 285 285 286 286 287 287 288 288 289 289 290 291 292 292 292 292 293 293 293 293 293 294 294 294 294 294 295 295 296 296 296 297 298 300 301 302 303 303 304 305 308 313 316 319 323 325 327 328 327 326 326 325 325 325 325 325 324 324 323 322 320 320 319 319 318 318 318 318 318 317 315 316 316 315 315
277 277 277 277 277 278 278 282 285 283 280 280 279 278 279 280 281 283 284 285 285 284 285 285 286 286 286 287 287 288 288 288 290 291 292 292 292 292 292 292 292 292 292 293 293 293 293 293 294 294 294 295 295 296 296 297 298 299 299 300 300 302 305 307 309 311 314 315 315 317 320 325 327 326 326 325 326 325 324 324 323 323 321 320 320 319 318 317 317 317 316 317 316 314 314 314 314
279 278 278 277 277 279 281 282 285 286 282 280 279 279 279 280 280 281 283 284 284 284 284 284 285 285 286 286 287 287 288 288 290 290 291 291 291 291 291 291 291 291 291 291 292 292 292 292 292 291 293 294 294 294 294 295 294 296 297 297 298 299 301 302 303 307 307 308 310 313 315 317 320 324 325 325 324 323 324 325 324 324 323 321 320 320 320 319 318 317 317 315 316 315 315 313 312
279 278 277 277 277 276 281 281 285 286 280 280 281 281 280 279 280 281 283 284 283 283 283 284 284 285 285 286 286 286 287 289 289 289 290 290 290 290 291 290 291 289 290 291 290 291 291 291 291 291 292 292 293 293 294 294 295 295 295 296 297 298 298 298 298 301 302 304 305 308 310 311 314 317 321 325 324 324 324 324 324 323 323 322 321 321 320 318 318 317 317 315 314 315 315 315 312
278 277 277 277 277 278 281 282 285 286 283 279 281 280 280 281 281 281 282 282 282 283 284 284 284 284 285 286 286 286 287 287 288 288 289 289 289 290 290 290 289 290 290 289 290 290 291 291 290 291 291 291 292 293 293 293 294 295 294 294 296 296 297 298 298 299 300 300 302 304 306 309 311 313 315 319 324 325 325 324 323 324 323 322 321 320 320 319 318 318 317 316 314 313 314 314 313
277 278 276 274 277 277 276 280 283 284 282 280 281 280 280 282 282 281 281 281 281 282 283 283 284 284 285 285 285 286 286 286 287 287 287 288 289 289 289 289 289 289 289 289 289 289 290 291 290 290 290 291 291 292 294 293 294 294 294 294 294 295 294 296 296 297 297 298 299 301 302 305 308 310 312 315 319 323 324 324 324 324 323 323 322 321 320 319 319 318 317 316 316 314 312 312 313
276 277 276 275 276 276 277 277 281 281 284 283 280 277 278 280 279 279 281 281 281 282 283 283 284 284 284 285 285 286 286 286 286 287 287 287 288 288 288 289 288 288 288 288 289 289 289 289 289 289 290 290 291 292 291 292 292 291 292 292 293 292 292 292 292 293 294 297 297 298 299 301 303 306 309 312 313 316 321 324 325 324 324 323 322 321 321 321 320 320 318 317 316 315 314 313 311
274 277 277 277 277 276 277 278 278 275 276 279 280 271 273 276 279 279 280 278 279 279 280 281 282 283 283 284 284 285 286 286 286 286 287 287 287 287 288 288 288 288 288 288 288 289 289 289 289 289 289 290 290 291 291 291 290 290 289 288 288 288 288 289 289 290 292 293 294 297 298 300 301 302 303 307 310 313 314 318 323 324 324 323 322 322 322 322 321 320 319 318 317 317 316 314 312
272 276 278 278 277 277 277 278 277 274 273 278 277 271 266 276 279 281 280 276 277 278 278 280 281 282 282 283 284 284 285 285 286 286 286 286 286 286 287 287 287 287 287 288 288 288 288 289 289 288 288 289 290 290 290 291 289 289 288 288 288 288 288 289 290 291 292 294 295 295 296 298 299 299 301 302 305 308 312 314 317 320 323 324 323 323 321 321 322 321 321 320 318 317 316 314 314
273 277 278 278 277 277 277 278 278 277 277 279 276 275 269 273 276 279 279 276 275 276 277 278 280 281 282 282 283 283 284 284 285 285 285 286 286 285 286 286 287 287 287 287 287 288 287 287 288 288 288 289 289 289 289 289 289 288 287 287 289 288 288 288 289 290 292 293 293 293 294 295 296 298 299 300 302 303 306 309 312 314 317 321 324 323 322 322 322 322 321 321 320 319 317 315 315
276 279 279 277 276 277 277 277 277 277 275 269 273 275 274 270 274 276 276 274 274 275 276 277 279 280 281 282 283 283 284 284 284 284 285 285 286 286 286 286 286 286 287 287 287 287 287 287 288 287 287 287 288 288 289 288 289 288 287 287 287 288 289 289 290 290 290 291 291 292 292 293 294 296 297 299 300 300 302 303 306 310 313 315 317 322 324 323 322 322 321 320 320 319 319 318 316
277 279 279 278 278 278 278 276 277 276 265 264 272 274 265 269 273 275 275 273 274 275 276 278 279 280 281 282 283 283 283 283 284 285 285 285 286 286 286 286 286 286 286 287 286 286 286 286 287 286 286 287 287 287 288 287 287 288 287 286 286 286 288 288 288 288 288 289 289 290 291 292 292 293 295 297 297 298 298 300 302 305 309 313 315 318 321 323 323 322 322 321 320 319 320 319 317
281 278 276 276 274 274 276 274 275 267 260 268 273 273 273 267 273 275 274 275 275 275 275 276 278 280 281 282 282 283 283 283 283 283 285 285 285 286 285 285 285 285 285 285 285 285 285 286 285 285 285 286 286 287 287 287 287 287 286 286 286 286 286 286 286 286 287 288 288 289 290 291 292 292 293 295 295 296 297 299 299 301 305 309 313 316 318 321 323 323 323 322 321 320 320 319 317
278 276 274 274 274 272 269 265 265 262 258 267 272 273 275 264 270 276 276 276 276 276 277 277 279 280 281 281 282 282 282 283 283 283 284 284 284 285 285 285 285 285 285 284 284 285 285 285 285 284 285 285 286 286 286 286 286 286 286 286 286 286 286 286 285 285 286 287 288 288 289 290 290 291 292 293 293 294 296 296 298 299 301 303 307 311 314 318 321 323 323 322 321 321 321 319 319
278 275 274 268 262 261 266 259 262 256 263 271 272 274 270 272 272 278 278 278 278 276 278 279 279 280 281 282 282 282 282 282 282 282 283 283 283 284 284 284 285 284 284 284 284 285 284 285 284 284 284 284 285 285 285 285 285 285 286 285 285 287 286 286 285 285 286 287 287 287 288 288 289 289 290 291 292 293 294 294 296 296 297 301 303 305 310 314 318 320 321 322 322 321 320 320 319
276 274 270 262 258 252 255 251 256 257 266 271 272 273 270 272 275 277 278 278 278 279 278 279 280 281 282 281 281 281 281 281 282 282 282 281 282 283 284 284 284 284 284 284 284 285 284 284 284 284 284 284 284 285 285 285 285 285 285 285 285 286 285 286 285 285 286 286 287 287 287 288 288 289 289 290 292 293 293 294 294 295 297 300 300 303 306 311 314 316 319 320 322 322 322 321 320
274 276 273 268 256 259 259 256 261 260 263 268 271 267 262 268 275 279 279 279 279 278 278 278 280 279 279 280 280 280 280 280 280 281 282 282 283 283 283 284 283 284 284 284 284 284 284 284 284 284 284 284 284 284 284 284 285 285 285 285 285 285 286 286 285 286 286 286 286 286 287 288 288 288 289 290 292 292 293 293 293 294 295 297 299 301 303 307 312 313 314 317 320 322 322 321 321
273 275 273 267 267 266 262 256 259 256 260 263 261 267 271 275 279 280 279 278 276 277 277 278 278 279 278 279 280 280 280 281 281 281 282 282 282 282 283 283 283 283 283 283 284 284 283 284 284 284 283 284 284 285 284 284 284 285 285 284 285 286 287 286 285 286 286 286 286 286 286 287 288 289 289 290 291 292 292 292 293 293 295 295 297 298 301 305 309 310 311 314 317 320 322 321 320
275 272 266 272 275 271 264 261 263 261 258 261 263 269 273 273 279 280 277 276 276 275 276 276 277 277 277 278 279 279 280 280 280 282 282 282 282 282 282 282 283 283 283 283 283 284 283 283 284 283 283 284 284 284 284 284 284 284 284 284 285 284 284 284 284 284 285 286 286 286 286 286 287 288 289 290 290 291 291 292 292 292 294 295 295 296 299 302 306 308 309 311 314 318 320 321 321
273 267 273 276 274 271 266 261 256 252 257 258 265 266 269 269 266 277 274 273 275 274 275 275 275 276 277 278 279 279 280 280 280 281 281 282 282 282 282 282 282 282 282 282 283 283 283 283 283 282 283 283 284 284 284 284 284 284 284 284 284 284 284 284 284 284 285 285 285 285 286 286 286 287 288 289 289 289 290 291 291 291 292 293 294 295 297 301 304 307 309 311 315 318 318 320 320
278 276 278 273 260 264 260 259 255 255 255 256 262 266 268 271 271 275 274 273 274 274 274 274 276 277 277 278 279 279 280 280 281 281 281 282 281 282 281 281 282 282 283 282 283 283 283 282 282 283 283 283 283 284 284 284 284 284 285 285 284 284 284 284 285 285 285 285 284 285 285 285 286 286 287 287 288 288 289 289 290 291 291 292 293 294 296 299 302 305 306 309 313 316 317 318 320
272 277 275 275 268 262 259 261 258 258 255 257 259 259 265 272 272 273 273 273 275 274 274 274 276 276 277 278 279 279 279 279 280 280 281 281 281 281 281 281 281 282 282 282 282 282 282 282 282 282 283 283 283 283 283 283 284 284 284 284 284 284 284 284 284 284 284 284 284 285 285 285 285 286 286 287 287 287 288 288 289 290 290 291 292 294 295 298 299 302 305 307 310 314 316 316 318
273 272 267 266 267 271 269 264 262 261 254 253 254 258 262 271 274 274 274 274 276 275 275 276 276 277 278 278 279 278 279 279 279 280 280 280 281 281 281 281 281 281 281 282 282 281 281 281 281 282 282 282 282 283 283 283 283 283 284 283 283 284 284 284 284 284 284 284 284 285 285 285 286 285 286 286 286 287 288 288 289 289 289 290 291 292 294 296 296 299 302 304 305 308 313 315 316
273 272 271 271 267 262 262 263 266 261 261 257 256 262 267 273 277 276 275 275 276 276 276 276 277 278 278 279 278 278 278 278 279 280 279 280 280 280 280 280 280 281 281 280 281 280 280 281 281 281 282 282 282 283 283 283 283 284 283 283 283 283 284 284 283 283 284 284 284 284 284 285 284 285 286 285 286 286 287 288 288 288 289 290 291 292 293 294 295 297 300 303 304 305 308 311 314
Wind_Speed
13 11 10 8 4 3 1 1 0 2 2 3 2 1 3 1 3 1 1 3 0 1 2 0 1 3 2 4 6 3 2 2 2 2 1 1 1 5 7 6 9 12 12 10 10 9 11 14 15 16 17 15 15 15 14 14 13 13 12 13 13 13 13 12 12 12 11 10 11 10 10 10 10 10 9 9 7 10 9 8 8 9 9 10 12 11 12 13 12 12 12 12 11 12 11 11 11
10 11 9 7 3 1 1 1 3 2 3 3 6 1 2 5 2 1 1 1 2 1 1 1 3 7 8 7 6 5 2 0 2 1 1 1 3 3 5 9 11 13 10 10 9 9 9 11 15 16 17 17 16 15 14 14 13 13 13 12 12 12 13 13 12 12 11 11 11 11 10 9 10 10 10 9 8 11 10 9 9 9 10 7 5 11 11 13 12 13 13 12 12 11 11 10 10
11 9 8 3 1 1 0 2 0 0 1 4 6 4 3 5 1 2 4 1 1 2 1 1 1 4 3 4 4 2 1 0 1 0 1 1 8 4 7 9 11 12 12 9 9 9 7 10 15 14 16 17 16 15 15 14 13 13 13 12 11 12 12 12 12 12 11 11 10 10 10 9 10 10 10 10 9 12 11 10 10 9 9 7 7 8 11 12 11 11 13 13 12 12 12 10 10
8 4 3 2 0 3 2 2 4 6 2 5 5 2 1 1 3 3 3 3 2 1 0 0 2 1 4 6 3 3 2 2 1 1 1 3 5 6 9 9 9 9 9 9 9 8 7 11 14 14 13 16 17 16 15 14 14 13 13 12 12 11 11 11 10 10 10 10 10 9 9 9 9 11 11 10 10 8 9 11 11 10 9 8 9 10 10 13 13 12 11 12 12 12 12 12 11
8 5 4 1 2 0 2 2 4 4 5 4 3 2 0 1 3 4 4 4 5 2 1 1 2 3 2 5 0 2 1 4 2 1 2 1 0 8 10 10 9 9 9 8 8 8 7 14 13 14 13 14 16 16 16 15 14 13 13 13 12 11 10 9 9 9 9 9 9 10 9 10 10 10 12 12 10 10 11 10 11 10 9 8 8 9 10 10 11 12 12 11 11 11 10 11 12
6 4 1 0 0 1 3 2 0 6 7 4 3 2 1 5 6 6 8 6 5 2 1 1 1 1 3 3 1 3 4 2 2 2 1 0 4 9 11 10 10 9 8 8 8 7 7 12 13 14 13 13 15 16 16 16 14 13 13 13 12 12 11 10 9 9 10 9 10 10 9 10 9 10 12 12 11 10 10 9 10 10 10 10 9 9 11 12 13 13 13 13 11 9 8 9 10
4 5 2 2 1 2 5 3 6 6 8 5 3 2 2 5 7 4 5 6 1 3 0 2 4 6 5 0 3 3 3 3 2 2 1 2 7 9 10 9 10 9 8 8 7 6 7 12 14 13 12 13 15 15 15 15 15 14 13 12 13 12 12 10 9 9 9 9 10 10 10 8 9 10 12 11 10 11 10 10 10 10 10 10 10 9 11 12 13 13 12 12 11 10 10 9 9
2 1 1 2 1 1 0 2 3 4 4 5 3 4 5 5 9 6 6 1 3 0 0 1 2 6 2 2 4 4 7 4 3 3 5 7 6 7 8 9 9 8 8 7 7 5 8 13 14 13 12 12 13 14 15 14 13 12 12 12 13 12 12 12 10 10 8 9 9 9 8 9 10 11 11 13 11 11 10 11 11 10 10 10 10 11 11 11 10 11 10 10 10 9 10 10 10
3 1 1 4 1 1 1 3 4 2 5 4 7 4 7 9 9 8 9 3 3 2 2 1 3 5 1 8 6 4 3 8 6 8 8 7 6 5 6 8 9 8 8 7 6 6 6 11 12 12 11 11 12 12 12 11 10 10 11 12 12 12 12 11 12 11 11 10 8 9 9 9 10 11 12 12 11 12 12 11 11 11 11 10 11 12 12 12 12 11 10 10 9 9 9 9 8
1 1 1 2 4 3 0 2 2 4 3 3 1 10 10 12 11 7 7 7 4 1 2 5 3 9 5 9 2 5 5 7 6 8 7 5 4 4 4 6 9 11 7 6 5 6 6 10 12 12 11 10 10 12 11 10 9 9 9 10 12 12 11 11 11 11 10 11 9 8 9 9 9 10 11 11 11 12 13 13 11 10 11 11 11 12 13 13 13 12 12 10 9 10 9 9 9
1 3 1 2 1 2 5 3 2 3 1 5 4 13 7 11 10 5 11 2 5 3 4 10 6 5 6 3 4 3 4 8 8 5 7 5 4 8 5 5 7 10 9 7 6 6 6 6 11 12 11 9 8 12 11 10 10 10 9 8 9 9 10 10 10 10 10 9 10 9 9 9 10 10 10 9 9 10 12 10 11 10 9 10 11 11 11 10 9 10 9 9 10 10 10 9 9
1 2 1 3 2 5 4 3 1 5 3 10 8 11 11 10 7 9 14 11 10 8 10 11 1 6 10 2 4 4 6 10 6 5 7 6 6 4 7 5 6 6 8 8 6 6 5 5 6 10 12 10 9 12 11 10 10 10 10 9 9 8 9 9 9 10 9 8 8 10 10 10 9 10 10 9 10 10 7 7 8 10 9 9 10 10 10 10 8 9 10 9 10 10 10 10 10
3 1 6 4 2 2 1 1 3 0 3 6 7 11 12 6 12 9 11 8 14 18 16 17 1 4 4 3 1 3 7 6 6 6 7 8 6 5 5 6 6 7 6 6 6 5 5 4 5 6 7 10 8 11 11 10 10 10 9 9 9 8 9 8 7 8 7 6 8 8 9 10 10 11 10 9 8 7 8 8 7 9 9 9 9 9 9 8 9 9 9 9 9 10 11 11 10
2 3 5 3 1 2 3 2 1 1 5 6 4 10 7 5 9 8 7 16 16 10 8 12 7 10 8 2 3 4 2 3 5 6 5 8 7 7 7 5 6 6 5 6 6 4 4 4 4 4 4 5 3 7 9 9 9 9 9 8 8 8 7 8 7 8 6 5 7 8 8 9 9 9 8 9 7 6 5 8 8 8 10 9 9 9 9 9 9 9 10 10 10 10 13 12 11
0 1 3 3 1 2 3 2 3 1 2 6 8 10 10 4 10 7 10 9 14 9 3 16 5 3 2 2 2 2 2 2 3 4 6 8 10 8 7 6 6 5 4 4 3 4 4 3 3 3 3 3 3 4 4 5 9 9 9 8 7 7 7 7 7 8 7 5 5 7 7 8 8 8 9 9 10 8 6 7 6 7 9 9 9 9 9 9 9 9 9 10 11 12 13 12 11
1 4 3 2 1 2 2 3 3 3 1 4 10 9 4 2 9 8 10 5 4 6 17 10 12 5 2 3 1 2 2 1 4 5 6 7 7 7 7 6 5 4 3 3 3 3 3 3 3 3 3 3 3 3 4 4 6 8 9 8 8 7 6 7 7 6 7 8 7 8 7 5 7 7 9 8 10 10 10 8 7 8 9 10 9 9 8 9 9 9 8 9 11 12 12 12 10
2 4 3 3 4 4 3 3 3 3 3 4 9 9 9 6 9 4 4 7 12 11 10 11 9 4 2 2 1 0 2 3 6 7 7 6 6 6 6 5 4 3 2 1 2 3 3 4 3 4 3 3 3 3 3 4 5 7 6 8 9 8 7 7 7 6 6 7 8 8 7 5 4 4 6 5 8 8 9 9 8 9 9 8 10 9 9 8 8 9 9 9 10 9 10 10 10
3 2 5 7 1 7 2 3 3 1 2 5 9 6 8 11 11 7 4 12 9 8 11 4 8 9 6 3 5 5 6 9 9 8 8 7 6 3 5 3 3 3 3 2 1 2 4 4 5 5 4 4 3 3 3 4 4 5 4 4 4 5 7 7 6 4 5 3 7 6 5 4 4 4 4 5 5 6 8 9 9 9 8 8 9 10 9 9 8 9 10 11 11 10 12 7 5
6 2 7 5 2 1 1 0 1 2 3 4 5 5 4 7 3 6 7 11 14 13 11 10 12 12 13 15 13 15 16 17 16 16 16 16 13 14 10 7 1 3 2 3 4 5 5 5 4 5 6 5 4 3 3 4 5 4 4 4 4 5 4 4 4 5 4 4 4 4 5 4 4 4 4 5 5 7 8 10 10 10 10 9 10 11 10 10 10 9 10 9 9 10 8 5 6
7 9 8 6 1 2 1 2 3 1 3 5 5 7 4 6 4 3 4 3 13 13 10 10 12 13 16 16 16 17 19 19 18 17 17 17 16 15 15 14 12 10 3 4 6 5 4 5 6 6 6 6 5 5 3 3 4 5 5 5 5 4 4 4 4 4 4 4 5 4 5 4 4 5 6 9 8 6 7 9 12 12 12 11 11 9 11 11 12 12 10 9 7 4 5 5 5
3 7 3 1 2 2 6 5 3 5 1 3 3 4 9 12 4 4 5 8 11 8 9 9 13 16 16 17 18 19 20 20 19 19 19 19 18 14 12 11 12 13 11 10 10 6 3 6 5 5 5 5 6 5 5 5 4 4 5 5 5 4 5 4 4 4 4 4 4 4 4 4 5 5 5 5 5 5 5 5 6 6 6 6 9 7 7 7 8 6 5 6 3 5 5 5 5
3 4 3 1 1 3 4 6 5 5 3 3 5 12 5 7 4 10 10 10 7 6 10 16 19 18 18 18 18 20 21 19 19 20 19 19 19 17 16 15 16 14 13 13 12 10 12 11 5 5 5 6 7 6 7 6 5 6 5 5 4 4 5 5 5 4 4 5 4 5 4 4 4 5 4 5 5 5 6 6 6 6 6 7 6 6 6 6 6 6 5 5 5 5 6 6 6
7 3 3 4 3 1 4 5 6 4 5 8 4 3 1 8 4 6 10 10 7 10 12 17 19 18 17 20 20 22 21 20 20 20 19 21 20 20 16 15 15 14 12 14 13 12 12 12 10 9 5 6 8 7 6 5 6 6 6 6 6 5 5 5 5 5 6 5 5 5 6 6 5 5 6 5 6 5 6 6 6 6 7 7 6 7 7 6 6 6 5 6 5 5 5 6 6
8 3 3 5 4 4 5 4 5 5 12 6 2 1 11 7 13 4 17 16 17 16 15 17 18 21 23 23 20 19 18 19 17 16 16 17 17 18 16 16 12 11 14 15 14 13 15 17 14 9 9 7 6 8 7 7 7 7 7 7 7 7 7 6 6 7 6 6 6 6 6 6 6 6 6 6 7 6 7 6 6 6 6 7 6 6 8 7 6 6 6 6 7 6 6 6 6
7 3 4 5 2 4 5 2 4 5 9 5 6 9 4 4 4 13 19 16 16 16 17 19 21 22 22 22 21 20 21 20 19 16 16 13 14 17 18 14 14 14 18 16 13 15 16 15 16 17 15 13 10 8 6 7 6 7 7 7 8 8 7 8 8 7 6 6 6 7 6 7 6 6 6 6 6 6 6 7 6 7 6 7 6 6 6 6 6 6 6 7 6 7 7 7 6
4 1 2 3 4 4 5 8 7 6 5 8 13 11 11 10 4 22 12 12 13 19 20 17 21 23 20 19 20 20 20 20 19 19 16 13 18 22 22 16 15 19 14 13 15 14 14 16 17 17 15 15 15 12 7 7 2 4 5 4 6 6 7 8 7 6 7 6 6 7 7 7 7 7 7 6 6 7 6 7 7 7 7 6 6 7 6 5 6 5 5 6 7 7 7 8 7
1 1 1 5 6 6 9 10 9 5 6 11 14 16 16 14 10 10 10 9 15 21 19 17 20 20 19 18 18 18 21 20 17 14 20 19 19 17 16 17 18 16 15 17 16 15 14 16 16 17 17 15 13 15 15 10 9 5 5 2 5 5 7 6 6 7 7 6 7 8 7 8 8 7 7 7 6 6 6 6 7 6 7 6 6 7 6 7 6 7 7 7 7 6 7 6 7
3 0 6 7 9 16 14 15 13 6 3 8 7 19 22 15 15 8 5 8 17 19 17 17 17 15 15 17 17 16 17 15 14 19 20 21 16 16 18 15 16 16 17 17 13 13 16 18 15 18 17 15 14 13 13 15 13 9 8 5 5 6 5 5 5 6 7 7 8 7 8 8 8 8 8 8 7 7 7 7 7 7 7 6 6 7 7 7 7 7 7 7 7 7 7 6 7
4 6 11 9 16 17 16 11 11 5 5 8 3 21 21 16 10 6 4 11 18 18 17 15 16 14 14 14 16 17 15 15 16 18 16 12 13 13 17 16 15 13 11 14 14 14 18 17 15 16 17 17 18 16 11 11 13 13 12 8 8 7 4 6 6 6 7 8 8 9 9 9 8 8 9 10 10 9 8 8 7 7 7 7 7 8 8 7 6 6 6 6 6 6 7 8 7
6 12 4 12 10 13 15 12 16 8 10 12 6 7 8 9 9 8 8 11 20 20 16 15 13 13 13 14 14 15 16 18 19 15 14 13 14 15 15 16 15 13 10 10 15 17 13 13 13 13 17 17 18 15 14 11 11 11 11 11 10 9 7 3 7 4 7 7 7 9 9 9 9 9 8 8 8 8 8 8 8 8 7 7 7 7 8 7 7 7 7 6 7 7 8 9 8
5 1 10 4 7 5 9 8 13 12 8 11 18 12 4 7 9 9 8 12 21 16 14 14 14 14 13 13 14 14 16 15 15 16 16 16 14 13 16 16 16 15 12 14 17 15 16 14 14 14 15 16 17 17 16 15 12 11 11 11 11 12 9 6 6 6 6 7 8 8 9 9 10 10 9 9 9 8 8 8 8 8 7 7 7 8 8 8 8 9 7 8 7 7 8 8 9
5 6 7 5 7 5 7 12 14 8 7 3 19 11 5 6 9 9 7 12 19 16 13 13 13 13 13 12 14 14 13 13 15 17 16 15 15 14 16 16 16 18 16 15 14 14 17 15 16 15 17 18 16 16 14 14 14 11 10 10 12 13 11 10 8 7 6 6 6 8 9 10 10 11 10 9 9 9 9 9 9 7 8 7 7 7 8 8 8 8 8 9 9 9 8 9 8
6 7 4 5 6 5 3 13 10 9 10 17 16 8 2 7 8 7 7 11 16 16 14 13 13 13 13 12 12 11 12 14 15 17 17 15 14 14 14 16 16 15 15 17 16 15 18 17 17 19 19 19 17 17 16 14 13 14 13 11 12 11 12 12 12 9 7 5 6 7 8 8 8 9 9 9 9 9 9 9 8 8 7 8 7 8 8 8 8 8 8 9 9 9 9 10 9
7 4 6 1 6 5 7 5 12 9 14 10 10 12 6 2 5 8 10 10 16 15 13 13 12 11 11 11 12 13 14 14 16 15 16 15 13 15 14 14 15 15 15 16 16 16 15 15 14 15 16 16 15 14 15 13 12 12 11 12 11 12 12 11 11 12 11 9 7 7 8 8 7 7 9 9 9 9 9 9 9 9 8 7 8 8 9 8 8 8 9 8 9 9 8 9 10
5 6 6 6 2 5 4 5 6 5 9 12 10 13 7 4 6 9 9 9 16 13 11 11 11 12 12 11 12 13 13 15 14 12 13 14 15 13 13 14 14 15 14 15 16 15 15 15 15 15 16 18 16 15 15 13 13 11 11 14 14 13 12 12 11 12 12 12 12 11 10 8 7 8 7 7 8 8 8 9 8 8 8 8 8 8 8 8 8 9 10 9 7 9 9 9 9
6 5 4 2 6 7 6 3 3 5 10 11 10 9 6 7 7 6 8 9 14 10 9 10 11 11 11 12 11 12 12 13 10 11 11 12 12 13 13 12 13 13 14 14 16 17 18 16 14 14 15 15 14 14 14 14 13 14 15 14 15 14 13 13 12 11 13 12 14 15 16 15 11 10 8 9 8 8 9 9 9 8 8 9 9 10 9 8 10 10 10 10 9 8 8 7 6
4 4 6 7 6 3 2 4 5 1 9 7 5 7 8 6 6 5 4 5 12 11 12 10 10 10 11 11 11 10 12 10 7 9 10 11 12 13 12 12 13 14 16 16 16 16 16 15 16 17 14 14 14 15 14 13 16 15 13 14 13 12 12 12 12 12 13 13 15 14 14 14 17 15 11 10 8 9 9 9 9 9 9 9 10 12 12 11 11 11 10 9 11 10 9 7 5
7 7 7 9 8 5 3 3 7 8 5 1 2 8 5 4 4 4 3 13 12 9 9 10 10 9 9 10 11 10 4 3 6 11 13 12 13 14 13 13 15 18 17 16 17 15 14 16 17 15 14 14 15 14 11 11 11 10 11 12 12 11 13 12 14 12 13 12 15 15 15 16 17 17 16 13 12 10 10 9 9 10 10 10 10 11 11 11 10 9 8 8 7 11 11 8 7
9 8 4 7 9 4 6 2 9 5 5 2 1 8 3 3 3 4 8 9 5 5 7 6 8 9 9 9 8 8 8 8 9 9 10 11 12 13 12 13 12 12 12 14 14 16 16 16 15 15 13 13 13 14 13 13 11 11 11 11 12 11 7 9 9 9 10 12 13 15 15 15 16 17 19 19 14 12 11 10 10 9 10 10 10 11 11 11 10 11 11 11 8 6 9 6 9
9 10 8 3 2 5 4 6 8 10 1 3 1 8 3 3 3 5 5 5 4 5 6 6 6 9 9 7 6 6 7 8 10 10 10 10 10 10 11 12 12 12 13 14 15 16 14 15 15 15 14 13 13 13 13 12 13 11 9 10 10 9 10 9 8 7 14 17 17 14 15 15 15 15 16 17 17 16 13 11 11 9 10 10 11 12 12 13 12 11 10 11 10 10 8 8 7
4 5 3 1 3 2 2 4 6 4 3 3 2 3 2 4 3 5 4 4 6 6 7 7 7 6 4 4 5 5 6 6 6 6 8 9 10 11 10 9 10 11 12 13 13 14 11 14 14 14 13 13 12 14 15 13 12 12 13 13 12 13 12 15 17 17 15 13 13 15 16 16 17 14 13 16 15 17 16 14 12 12 12 11 10 11 12 13 13 13 13 12 13 13 12 8 7
5 1 3 1 2 3 2 5 2 3 1 3 1 1 2 2 2 1 3 4 6 4 6 6 5 5 4 6 5 5 5 4 4 5 5 5 5 6 8 9 9 10 11 10 10 11 11 12 13 14 13 12 13 14 15 13 13 14 16 17 19 17 16 16 17 17 18 17 16 15 14 14 14 15 16 15 13 14 17 18 17 15 13 11 10 11 12 11 12 12 12 13 14 15 13 11 9
3 3 3 2 2 1 1 4 3 2 3 1 2 4 1 1 1 1 1 4 6 4 5 4 4 4 4 5 4 4 4 4 4 4 4 5 5 5 7 7 7 9 8 7 7 8 10 10 11 12 11 11 12 13 14 13 13 12 14 13 12 12 12 10 11 10 11 12 13 15 15 13 13 15 15 15 16 16 16 16 16 17 15 13 11 12 12 13 13 13 12 12 14 13 13 13 14
1 1 4 3 0 1 2 1 2 1 1 2 5 2 2 1 1 0 1 5 4 4 4 4 3 4 4 4 4 4 4 4 4 4 4 4 4 4 5 5 6 6 5 6 6 7 9 10 10 11 10 11 11 12 13 13 12 12 13 13 12 12 11 12 14 12 11 11 13 14 13 13 15 15 13 14 15 16 15 16 17 16 16 18 14 11 12 13 12 12 12 14 13 12 14 14 15
4 5 6 7 3 3 3 4 3 1 2 1 7 5 3 1 2 1 3 3 4 4 3 3 3 3 3 3 3 4 4 4 4 4 4 5 6 5 4 5 4 4 5 6 6 6 6 7 8 9 10 9 10 12 12 13 12 12 11 11 13 10 12 12 12 11 12 12 14 14 15 16 16 15 14 15 15 16 15 16 17 15 15 15 14 14 13 12 13 14 14 13 12 12 12 13 12
5 6 5 2 1 1 3 2 1 2 2 2 4 5 1 4 2 2 2 3 1 1 1 1 1 1 1 2 3 3 3 4 4 4 4 4 5 5 4 4 5 5 4 4 5 4 5 5 7 9 10 9 9 11 11 12 12 12 12 13 14 14 12 12 12 14 13 12 13 15 14 14 13 14 16 15 13 16 18 17 17 18 17 15 13 15 17 15 13 14 14 14 15 16 14 14 15
10 3 1 1 5 4 2 6 2 3 1 2 1 4 1 1 2 4 3 2 2 1 2 2 2 2 2 1 1 2 2 3 3 4 4 4 4 4 4 5 5 5 4 4 4 4 4 5 5 7 8 8 9 10 10 10 10 10 10 13 14 15 16 14 14 15 15 15 16 15 14 12 13 15 14 13 15 16 16 14 16 18 16 15 15 14 15 16 14 13 13 16 16 17 14 15 15
5 4 2 2 1 8 3 5 3 2 2 4 2 4 1 2 1 3 4 1 2 3 1 1 0 1 1 1 2 2 2 3 3 4 4 4 5 5 5 6 5 6 5 5 4 4 4 4 4 5 7 6 6 8 9 9 9 9 8 10 12 12 13 13 14 14 14 15 16 16 13 13 14 12 12 13 16 17 15 15 15 16 16 17 16 14 15 16 15 14 12 12 13 15 15 15 15
10 4 8 5 3 5 2 7 2 0 1 2 1 4 2 3 2 4 4 2 2 4 2 1 1 1 0 2 2 2 3 3 3 4 4 4 4 5 5 5 6 5 5 6 7 6 5 5 6 6 8 6 6 6 6 7 8 8 9 9 9 10 12 12 12 13 12 11 12 13 14 14 14 14 13 16 16 19 16 17 17 15 16 15 15 17 17 17 15 14 15 15 14 14 14 15 14
11 8 4 4 2 3 1 4 1 5 6 4 2 3 2 1 1 3 5 4 3 1 2 1 1 1 0 3 3 4 3 3 3 3 3 4 4 4 5 5 6 6 6 8 7 7 6 7 6 7 8 7 6 6 6 6 6 7 7 8 9 9 10 11 11 11 12 10 10 11 12 13 12 14 16 16 14 16 17 16 15 18 15 16 16 18 17 17 17 14 15 16 16 13 12 15 17
2 2 1 2 4 1 2 2 2 3 5 8 4 0 2 1 3 4 6 5 1 1 2 2 0 1 3 4 5 5 4 4 3 4 4 4 5 5 5 5 5 5 6 7 7 7 6 8 8 9 10 9 8 8 7 8 7 7 6 7 8 8 9 10 10 10 11 12 11 12 11 11 12 13 13 13 16 15 15 17 19 17 16 17 16 15 16 15 16 13 14 15 16 14 14 15 15
2 3 4 5 1 2 1 3 2 2 4 6 2 2 1 1 1 2 1 2 3 3 4 4 3 3 4 5 5 6 4 4 4 4 5 6 5 5 5 5 5 5 6 6 7 7 6 7 7 8 9 10 10 11 10 10 10 8 7 8 9 9 9 9 9 9 10 10 11 12 12 11 12 12 13 14 16 14 15 17 16 17 17 16 17 17 16 15 15 15 14 14 15 14 15 16 14
1 2 1 2 3 3 1 1 1 1 3 6 1 7 2 4 1 1 1 3 4 4 3 3 3 4 4 5 5 6 6 5 5 5 6 7 7 7 6 6 5 6 6 7 8 7 7 8 10 10 9 10 13 12 13 12 11 10 11 9 9 10 10 11 11 12 13 11 11 11 11 12 12 11 12 12 14 16 16 13 15 16 16 15 16 17 17 17 16 15 14 16 16 14 15 16 15
1 3 2 1 2 3 3 1 4 4 1 6 1 3 5 2 2 1 3 2 4 4 3 4 4 5 6 6 6 6 7 5 5 6 6 5 6 7 7 6 6 6 7 7 9 8 7 8 9 7 9 13 14 13 13 13 14 13 13 12 12 11 11 11 11 12 12 12 11 11 11 12 12 12 12 11 13 15 16 16 14 15 15 16 16 17 17 17 16 14 15 15 14 13 14 14 15
2 1 1 1 1 1 3 2 2 3 4 6 6 2 5 6 6 4 1 1 3 4 3 4 5 5 6 6 7 7 6 4 6 5 5 6 6 6 6 7 7 8 7 7 7 7 7 7 5 5 9 11 11 11 12 13 13 12 11 13 14 13 12 11 11 11 11 12 13 13 13 13 13 13 13 13 14 15 15 16 15 14 15 16 16 14 15 16 15 13 15 14 14 13 13 14 15
1 1 1 1 2 1 1 1 3 5 4 5 8 3 4 5 4 8 2 4 0 3 4 4 5 4 5 5 5 6 5 4 5 5 5 5 6 7 7 8 8 8 8 8 8 7 7 8 7 9 10 11 12 13 13 13 14 13 14 14 14 14 13 13 12 12 12 13 13 13 14 14 14 13 13 15 14 14 15 14 15 16 16 15 16 15 17 15 17 16 14 15 16 15 14 14 14
5 6 3 3 2 1 3 0 2 2 2 3 3 8 5 6 5 5 3 5 1 2 5 5 5 5 5 5 5 4 4 4 4 4 5 6 7 7 8 7 7 7 6 6 6 6 7 7 8 9 11 12 13 14 13 13 13 15 16 17 17 15 16 14 14 14 13 12 12 13 13 13 13 13 14 14 15 14 14 14 15 15 16 15 16 17 14 14 16 16 16 15 16 17 16 13 12
1 2 2 3 1 1 1 5 1 1 2 3 1 12 6 6 2 5 6 4 2 3 4 5 6 7 7 5 4 4 3 4 4 6 5 6 6 7 7 7 6 6 7 6 5 6 8 9 10 10 11 13 15 16 15 15 14 14 15 16 17 15 15 15 16 16 15 14 13 13 14 13 14 14 13 14 15 12 13 14 14 15 13 16 15 16 16 14 14 17 16 12 14 16 17 17 13
Wind_Direction
323 321 315 311 294 246 50 11 42 310 46 264 308 308 261 235 222 289 272 339 9 262 239 351 94 74 121 159 163 167 179 120 200 113 214 234 292 159 151 126 130 141 152 155 163 165 161 166 164 161 163 166 165 168 160 156 158 162 170 167 166 166 167 169 169 169 171 167 167 171 181 168 169 173 177 182 179 167 166 152 154 151 160 158 167 159 164 159 155 141 131 132 127 126 121 114 115
318 316 315 299 278 106 265 127 93 354 33 4 257 153 261 303 40 216 248 209 206 243 260 229 82 84 81 104 118 94 23 1 184 190 255 270 68 104 148 137 141 146 151 155 160 161 163 168 161 162 164 164 167 166 160 159 161 161 167 172 168 170 171 171 171 170 175 173 174 176 184 180 169 176 180 187 202 173 166 159 160 157 155 152 153 168 160 157 153 141 137 134 132 128 123 121 116
319 327 322 344 31 96 38 45 266 30 93 270 276 210 282 346 21 278 232 205 221 238 4 328 142 76 46 63 50 94 227 319 53 302 169 347 119 227 153 146 145 146 150 155 158 159 161 165 162 163 164 163 165 166 160 163 163 162 162 168 174 176 177 176 174 175 179 177 178 178 189 178 175 181 183 186 197 177 172 168 162 160 151 149 137 142 144 140 136 140 137 134 132 128 126 125 117
312 272 258 359 350 19 75 28 100 125 171 216 288 285 243 220 205 228 250 261 272 337 260 311 43 268 105 76 144 88 46 7 259 173 118 209 207 149 144 142 139 139 144 154 160 157 157 165 161 161 166 163 167 164 163 165 167 166 163 163 171 179 180 182 178 178 181 180 181 183 185 170 182 186 187 185 194 169 180 171 168 170 160 162 158 152 158 152 151 147 142 137 135 133 131 129 126
317 298 168 125 108 255 112 188 155 104 221 188 211 250 337 34 352 332 282 256 262 287 270 195 79 341 71 107 56 91 251 293 312 178 280 292 132 137 136 134 133 140 150 153 155 158 159 164 161 162 162 169 168 165 164 169 169 168 168 165 167 172 179 181 184 181 182 186 189 192 186 182 192 190 187 186 183 174 187 187 167 172 168 169 168 161 157 156 153 151 150 138 135 133 135 134 137
291 345 51 111 135 194 54 100 117 176 224 148 229 187 15 5 341 346 297 309 284 263 206 55 152 153 31 0 74 57 319 58 305 322 147 315 132 132 131 131 133 140 148 148 153 157 162 164 158 159 163 167 171 168 168 170 172 169 172 170 170 172 175 182 186 185 183 185 192 196 188 194 195 187 189 188 180 183 184 172 164 175 173 171 178 176 164 163 161 160 148 143 144 148 145 145 140
341 7 354 30 353 59 170 150 185 194 255 175 227 227 85 327 314 351 310 318 281 314 261 155 113 98 85 251 39 63 350 272 342 318 331 96 121 121 126 129 132 138 143 147 151 156 160 159 156 161 164 166 173 170 173 174 174 172 174 176 172 177 173 181 183 189 191 193 193 197 198 197 191 194 185 187 188 186 185 172 171 173 172 169 164 172 180 169 168 161 155 149 152 152 147 155 150
232 116 300 107 188 74 153 185 219 169 267 186 252 316 340 302 305 300 264 334 285 315 332 270 126 98 334 344 105 316 8 16 354 345 40 76 105 113 122 129 128 138 143 146 151 153 159 160 157 162 163 169 174 171 176 178 178 175 174 176 177 181 178 181 182 191 195 204 201 208 202 198 194 194 202 183 187 189 189 173 169 169 167 162 161 162 163 163 171 165 163 158 160 154 156 163 164
349 74 346 76 136 29 65 172 226 259 285 305 309 313 324 343 331 301 287 239 329 263 247 265 195 79 122 62 68 343 350 342 16 30 42 62 78 112 124 131 133 138 143 150 147 149 156 163 158 162 166 171 173 170 175 179 183 180 174 174 180 184 185 184 187 188 193 203 206 211 212 206 196 198 196 198 183 185 191 177 171 171 167 164 163 160 162 170 175 175 177 175 175 164 162 166 175
25 58 250 155 126 185 208 304 134 237 234 263 356 353 343 337 320 296 269 287 240 11 321 346 343 109 112 54 346 356 343 325 19 21 9 46 82 103 117 136 140 138 146 147 149 153 158 163 163 162 169 175 172 165 173 179 184 182 178 177 185 185 183 190 190 193 195 193 198 207 211 209 204 207 194 202 183 192 189 188 170 177 174 170 167 167 169 175 177 178 186 178 180 172 170 173 180
22 6 157 91 78 147 178 257 272 309 302 341 45 349 347 326 336 345 343 233 19 75 337 6 51 69 81 62 60 259 317 10 20 356 345 351 58 132 129 135 140 142 147 151 154 155 159 167 168 167 172 177 172 165 173 180 185 182 179 181 188 186 186 190 193 193 195 191 190 199 207 210 206 206 198 192 203 211 202 171 175 176 178 178 171 171 176 179 182 186 187 190 188 177 179 181 182
57 87 28 128 173 160 223 186 265 263 353 19 359 347 336 326 335 11 344 24 349 31 14 355 105 148 68 55 19 329 347 8 350 335 358 9 29 80 126 125 128 137 144 146 149 160 165 167 171 177 177 178 172 169 173 182 186 188 182 182 188 186 184 193 194 193 199 199 187 195 195 205 202 204 204 189 212 211 192 194 187 180 178 180 177 174 179 183 190 194 194 199 204 192 197 190 189
126 93 88 93 213 146 204 133 245 347 27 10 338 329 325 337 23 338 339 20 25 37 4 336 288 50 86 55 242 330 20 336 345 359 10 25 23 67 90 107 114 125 129 132 146 161 163 169 173 179 187 182 176 176 173 180 186 188 189 187 187 187 180 191 185 184 204 194 186 187 191 199 198 204 199 205 211 209 180 192 198 193 180 176 176 174 177 186 192 196 207 208 208 210 208 205 202
111 180 119 177 51 129 128 215 302 115 37 303 326 317 338 14 348 341 325 46 21 37 22 5 58 97 73 89 336 345 311 308 351 7 24 35 41 53 67 85 105 114 119 133 148 152 160 169 168 178 187 187 177 185 179 182 185 184 190 193 188 190 181 184 173 180 200 207 185 189 187 193 189 200 203 191 219 250 221 191 200 198 189 179 177 179 177 178 187 198 207 208 208 211 212 214 211
328 140 84 117 45 92 350 73 9 14 127 0 334 339 332 31 357 347 26 35 38 357 248 37 330 21 318 60 335 287 256 320 4 15 37 44 50 51 52 56 74 90 99 110 124 142 159 157 165 166 180 194 177 178 187 192 189 187 189 187 186 184 188 179 167 180 195 206 179 184 192 189 187 191 201 188 201 214 231 229 215 204 193 192 190 191 191 190 193 197 206 212 205 212 210 213 214
173 79 80 93 7 110 335 49 343 98 50 345 323 322 349 11 4 12 353 12 38 10 46 27 21 79 224 63 168 242 254 2 16 29 39 44 57 59 54 54 62 47 60 112 126 139 146 155 159 171 178 199 190 186 185 188 202 195 194 188 189 192 192 187 179 173 192 198 184 179 189 189 186 195 196 195 199 208 215 211 216 207 197 198 201 200 201 203 206 209 208 217 216 208 213 210 203
27 83 49 38 43 61 351 40 11 35 274 313 324 5 19 346 346 20 324 15 43 27 50 44 42 6 31 14 290 304 349 17 32 37 33 18 40 57 59 57 62 48 65 78 147 155 158 169 175 179 195 200 198 195 195 191 200 210 208 200 190 193 193 193 192 185 185 192 185 186 186 183 195 196 203 200 204 210 209 197 211 211 204 207 197 202 205 214 217 218 216 221 224 214 204 208 208
52 56 121 57 120 52 337 46 11 275 25 320 342 352 7 17 347 352 309 22 51 49 48 55 51 48 28 346 21 12 9 23 12 35 23 13 7 32 87 110 115 144 150 171 223 186 172 191 189 187 190 206 201 201 202 194 196 202 208 214 212 200 200 195 192 188 191 197 192 188 188 186 190 200 204 203 202 210 213 201 204 214 208 200 191 201 208 214 219 223 227 225 226 222 202 208 184
49 84 58 99 32 72 325 306 309 21 318 299 314 345 27 6 342 335 33 18 23 34 33 33 47 43 42 35 34 39 40 38 37 39 35 25 14 5 351 342 24 157 178 207 207 194 202 197 191 193 196 194 197 207 218 204 193 195 204 208 215 213 210 205 196 193 185 189 195 192 188 190 190 196 198 199 201 212 210 206 204 209 215 208 199 199 204 206 211 219 224 234 232 224 200 177 182
20 95 65 39 256 236 101 17 344 334 278 340 353 341 25 345 26 297 52 22 30 32 14 25 41 38 44 40 42 44 43 40 39 41 40 35 30 24 17 14 354 324 309 219 199 200 204 201 204 205 198 192 190 205 208 220 217 196 201 202 203 204 209 207 204 203 194 193 194 194 193 193 193 199 206 203 198 203 213 210 208 209 214 213 205 201 203 203 208 212 213 224 234 181 167 174 174
342 64 78 18 275 67 349 355 343 331 33 338 356 318 18 350 332 27 352 48 29 9 16 20 37 45 44 42 37 41 42 38 34 36 36 34 29 27 22 17 10 13 16 358 346 319 241 206 209 214 206 199 197 202 204 208 213 219 212 206 202 199 197 200 205 205 198 196 201 198 204 197 198 201 207 213 209 206 209 215 215 217 217 222 213 207 202 208 207 208 210 223 191 176 174 182 180
85 94 165 201 312 63 340 341 358 346 335 47 16 35 352 308 29 23 39 54 23 351 356 33 52 48 44 42 41 42 40 38 34 35 33 34 31 23 18 13 13 20 15 19 2 4 347 321 280 217 200 206 206 202 205 205 194 207 213 210 205 207 204 201 198 205 208 205 197 201 199 207 211 204 210 215 218 211 214 218 219 214 215 219 207 210 207 205 207 197 193 210 196 187 189 187 194
84 357 340 356 11 26 339 339 343 15 28 38 29 347 283 21 37 20 41 37 347 11 38 55 54 52 49 48 40 40 38 38 35 33 27 29 26 26 23 18 18 14 11 12 7 5 357 354 330 300 247 209 212 211 208 201 208 210 206 202 199 213 205 211 211 204 205 202 202 198 192 207 211 212 213 216 223 215 222 221 221 216 217 214 209 203 206 204 204 199 192 203 202 194 196 194 196
93 83 8 343 353 15 323 331 330 37 46 12 288 353 45 6 48 336 31 18 44 54 53 55 54 51 44 46 41 42 41 41 41 38 35 34 31 29 23 20 16 13 16 11 11 0 4 4 353 342 306 283 236 212 210 209 212 208 208 203 204 206 199 210 215 211 205 204 202 200 202 203 205 214 218 216 221 220 226 221 221 222 221 219 211 210 204 206 210 202 192 202 205 207 204 199 200
57 41 343 323 359 339 334 359 40 53 40 8 49 51 327 13 60 38 38 43 51 54 52 48 51 49 45 44 39 37 37 34 33 33 35 32 31 29 26 22 18 16 18 12 3 7 7 1 9 15 1 346 324 303 255 222 221 223 209 202 211 206 203 208 210 207 209 209 205 202 196 206 211 215 222 225 219 223 226 224 220 223 219 223 211 222 212 208 213 210 203 203 208 211 212 212 204
46 4 4 338 32 1 6 22 19 41 48 6 53 27 14 2 74 49 31 42 52 55 51 46 51 49 45 43 40 38 36 34 29 28 29 26 27 26 22 17 15 21 12 9 9 10 6 2 13 13 11 5 350 348 312 309 333 318 298 277 256 218 213 212 204 208 214 207 211 208 203 205 208 209 217 223 220 228 222 224 225 224 222 218 212 218 214 213 215 217 219 215 212 217 216 218 208
90 349 26 75 44 42 21 32 7 1 62 28 66 46 27 11 55 51 20 40 55 55 50 45 53 53 47 46 42 36 38 32 26 21 31 27 26 26 20 18 17 13 12 13 11 10 4 9 10 10 10 10 12 7 351 339 320 310 275 325 317 292 257 222 207 213 211 214 219 212 209 208 210 213 214 219 223 225 224 220 223 222 226 219 212 219 208 213 214 213 210 212 218 221 226 221 217
54 178 76 59 55 44 27 19 2 7 20 37 71 52 38 21 58 50 18 42 61 63 52 49 51 52 52 48 48 43 43 31 27 32 28 24 19 18 21 15 11 14 13 10 7 2 12 12 9 13 6 7 13 16 5 355 348 329 308 303 265 257 254 277 257 221 216 215 216 216 215 213 211 216 211 216 218 219 221 218 220 215 222 219 214 216 211 214 213 215 214 214 215 214 222 224 225
59 65 57 33 43 36 17 18 349 13 4 341 226 46 28 18 38 346 347 60 61 59 54 49 50 49 48 49 48 45 39 34 34 35 28 24 25 21 23 18 17 13 14 11 4 9 14 10 10 9 6 10 12 9 6 3 355 348 335 306 283 268 285 256 252 251 233 218 216 213 216 216 214 214 215 215 215 217 218 214 215 215 215 213 214 216 216 215 219 219 222 220 226 224 227 229 228
46 41 50 35 30 35 5 6 359 20 356 352 98 53 349 7 12 360 331 60 63 54 47 44 46 46 45 45 47 45 38 36 34 31 26 23 22 20 22 17 18 16 9 9 11 17 10 15 11 9 8 9 7 6 5 5 1 353 349 347 336 312 280 256 266 267 264 252 224 217 215 218 218 218 215 219 219 220 219 216 212 212 209 208 212 213 217 213 218 215 220 211 227 223 227 230 226
59 5 49 23 35 11 339 14 356 41 357 37 84 94 19 6 12 359 356 48 70 61 50 45 44 43 42 42 43 43 41 38 36 30 27 25 21 21 19 17 17 15 15 15 18 12 16 17 15 14 8 8 7 6 2 1 359 358 355 353 351 348 328 289 285 263 257 250 247 227 218 217 219 222 217 217 217 219 221 220 215 213 203 204 208 212 214 216 216 217 210 217 226 229 233 233 228
13 46 2 341 56 337 314 8 12 44 7 357 84 62 61 21 1 353 358 46 67 65 53 48 46 45 42 41 41 40 41 36 35 33 29 26 22 19 19 16 13 16 16 15 14 13 19 17 15 16 13 12 7 4 0 358 358 355 355 356 353 350 349 343 317 295 296 290 283 261 234 217 217 217 219 217 223 218 222 226 223 211 204 201 207 212 213 219 216 221 218 212 219 229 229 238 233
12 74 71 19 22 353 352 8 7 14 66 26 83 135 175 31 353 360 4 48 63 65 53 48 47 45 43 43 41 39 33 33 34 31 26 23 23 22 18 16 15 13 13 15 14 13 17 12 17 17 13 9 5 2 1 0 357 357 357 357 358 354 353 348 340 326 303 288 283 290 278 252 227 217 217 217 227 226 224 228 227 217 206 204 207 206 212 217 211 217 221 217 216 223 220 232 232
8 14 84 74 62 3 41 306 23 357 69 59 58 85 73 67 355 15 26 37 62 59 54 49 48 47 45 43 42 38 36 32 29 23 21 21 19 20 20 18 16 14 15 15 17 16 14 12 14 14 12 11 7 3 0 357 355 356 357 360 0 0 355 351 345 342 340 319 305 295 294 291 271 246 221 218 219 228 229 227 227 217 211 211 213 210 214 210 214 210 220 216 215 221 224 225 231
32 4 24 357 13 62 67 42 336 41 41 80 77 77 66 38 33 33 30 41 64 60 55 52 48 45 41 42 41 38 38 35 27 19 17 19 20 17 16 16 16 16 14 11 13 15 16 14 13 11 12 10 6 2 360 357 355 358 1 3 1 2 1 356 355 352 355 350 342 322 303 294 290 274 266 235 222 227 233 233 228 217 212 216 218 219 220 213 216 220 223 221 213 219 222 222 227
86 89 96 50 43 7 32 340 328 63 66 55 57 87 68 44 39 28 31 36 63 60 56 53 48 47 43 42 39 40 36 37 23 17 18 21 21 18 16 15 16 15 13 11 11 13 13 13 10 12 14 6 4 5 2 1 4 6 356 356 1 2 360 357 356 358 353 354 350 349 346 331 306 293 280 262 246 233 227 229 231 221 214 214 220 225 224 216 215 222 229 228 222 229 233 235 227
123 92 72 52 40 357 310 0 344 259 76 48 76 79 73 51 39 30 11 52 60 54 51 50 49 46 46 43 43 38 38 32 10 19 22 21 21 19 17 15 14 14 17 13 12 13 13 10 7 12 6 5 8 6 7 2 1 356 2 3 354 351 354 352 355 354 356 352 348 348 348 347 339 325 302 290 273 252 241 232 225 228 220 221 223 225 222 220 215 213 219 215 223 230 236 219 217
67 66 50 44 41 3 316 346 350 9 92 32 17 77 49 60 39 34 17 59 50 52 58 55 52 53 50 46 42 37 30 18 22 27 24 23 19 17 17 17 13 15 10 11 13 9 9 8 12 6 5 6 9 8 360 5 6 3 346 348 346 345 353 356 353 356 351 348 350 352 351 348 342 336 327 307 282 272 261 244 230 222 216 220 228 232 230 224 219 216 214 227 217 227 238 202 197
48 66 41 45 360 290 285 320 357 340 50 68 326 83 36 12 37 27 50 61 57 52 63 65 63 56 52 47 43 36 28 25 28 30 26 25 21 20 19 15 16 18 11 12 9 10 11 11 8 5 4 5 5 3 3 2 357 357 355 346 345 343 347 345 341 334 343 348 353 355 352 349 344 338 335 329 313 286 267 260 248 234 223 219 222 229 230 230 224 221 213 218 222 223 239 210 188
44 30 38 26 286 28 3 321 355 342 66 171 178 90 54 349 0 44 34 49 52 43 56 55 58 64 57 47 41 37 32 27 27 22 21 20 23 21 19 18 14 10 12 12 11 10 8 7 6 3 2 3 2 2 1 354 352 344 350 347 344 347 330 321 327 336 356 360 357 353 353 348 344 340 334 331 326 314 295 271 261 251 238 223 222 227 227 226 219 220 218 222 220 229 220 232 188
356 79 98 58 349 317 182 269 318 310 39 90 32 43 353 10 15 25 4 11 46 29 41 44 40 50 60 50 44 36 39 29 23 19 18 19 20 19 18 15 11 16 14 12 10 9 6 3 2 1 1 1 2 360 359 352 349 355 353 353 357 355 354 1 359 357 357 349 347 354 352 346 342 336 335 331 327 324 318 301 279 264 253 238 228 229 231 228 225 220 214 216 213 223 231 223 206
341 242 99 237 241 271 238 269 323 36 345 343 6 33 317 304 342 11 341 4 33 358 46 37 38 41 37 46 36 19 22 27 35 22 15 11 13 9 14 12 17 15 14 9 7 5 5 2 1 0 0 1 2 0 359 358 359 358 0 4 1 359 358 359 359 349 343 345 344 337 338 343 339 339 338 332 328 328 329 326 314 291 267 251 235 231 230 234 231 227 219 217 221 219 229 226 223
60 326 107 4 263 228 300 352 58 50 89 340 68 141 247 330 98 58 320 36 31 0 30 25 29 28 38 45 29 21 17 10 6 11 9 15 8 16 11 12 10 13 5 357 359 3 2 2 3 3 1 359 359 358 0 360 1 4 4 3 -0 356 347 344 341 338 335 331 333 336 334 336 340 339 337 338 337 333 330 328 325 320 301 271 253 240 233 230 230 227 223 218 221 217 214 230 230
0 244 28 350 156 171 182 116 117 205 295 297 33 82 146 275 287 258 282 69 16 14 0 10 14 22 37 35 22 17 14 15 9 3 357 357 4 14 10 356 2 359 347 350 358 357 359 358 359 0 1 360 358 357 359 3 1 359 359 359 357 353 350 337 337 335 332 332 333 335 334 335 336 339 337 339 338 338 333 329 328 324 323 311 284 256 244 235 232 230 225 223 222 220 214 217 224
243 308 0 307 256 222 162 142 167 198 117 289 339 355 79 260 263 323 30 57 353 5 347 347 354 13 23 22 8 7 9 13 16 2 348 350 353 353 352 354 344 343 348 351 352 346 347 350 354 355 358 357 356 357 359 359 1 358 355 353 351 347 342 339 333 332 333 335 335 336 337 336 335 337 340 338 338 338 337 334 328 321 318 316 310 289 264 249 240 235 228 221 220 221 222 224 226
282 305 322 274 153 142 159 101 101 344 69 313 340 326 116 283 265 328 337 84 358 287 290 309 311 334 0 352 350 346 350 3 2 356 336 334 335 338 330 332 345 335 327 336 338 340 342 347 355 356 355 354 351 355 357 356 357 356 355 351 348 342 342 338 338 336 337 336 334 336 336 335 336 335 336 337 337 338 336 333 329 325 320 316 314 311 298 272 247 239 232 228 220 222 219 219 221
291 305 37 1 53 29 36 53 71 57 35 256 270 298 185 284 247 193 127 180 190 259 302 292 311 358 350 324 307 323 337 343 347 346 345 338 319 333 336 343 321 326 329 334 333 330 327 340 342 353 346 347 348 350 352 353 353 353 352 348 343 341 340 338 339 338 337 338 338 334 335 333 333 331 331 330 334 333 332 330 329 327 322 318 317 316 311 301 277 254 239 234 230 224 222 220 220
351 13 17 31 340 9 28 347 30 88 279 253 227 312 177 147 291 266 241 275 191 164 170 261 258 331 319 306 300 300 319 330 333 349 343 345 350 351 355 351 334 322 328 332 325 320 325 322 333 342 337 340 339 341 347 347 346 345 345 343 340 337 337 336 336 334 334 332 331 330 329 328 329 328 329 328 331 333 332 329 327 324 325 324 319 314 310 307 304 289 263 245 236 228 226 224 223
18 22 28 86 278 36 270 10 357 235 190 182 205 9 37 256 211 170 183 209 240 225 206 208 191 59 311 300 296 288 302 322 335 327 325 329 333 339 352 346 343 334 329 325 325 326 325 326 335 337 330 325 325 327 335 334 338 339 336 336 335 332 332 331 329 327 328 326 326 325 328 328 327 328 330 330 328 330 329 329 327 328 325 322 317 315 310 307 303 298 284 261 248 236 228 224 223
5 30 19 62 31 36 266 274 237 312 285 269 343 345 220 233 295 204 160 205 200 223 265 315 142 134 345 298 293 300 312 310 303 304 300 306 316 328 336 336 337 332 326 324 322 329 330 327 329 329 318 317 315 320 319 323 325 324 328 328 327 327 326 326 326 323 322 319 319 318 320 321 320 321 322 323 323 323 323 320 321 320 316 314 315 313 310 308 309 305 300 286 263 250 240 230 229
311 269 104 158 145 158 251 233 269 234 247 290 295 90 239 74 208 175 179 171 194 349 21 54 60 281 289 286 295 307 316 305 290 297 292 299 306 313 316 324 327 327 321 322 322 322 328 327 326 321 316 317 319 317 319 318 313 312 318 319 321 322 320 319 318 316 317 318 317 314 313 314 314 316 316 315 317 319 316 317 318 316 316 317 316 313 310 305 302 301 300 296 285 263 247 241 234
278 140 96 55 323 140 167 206 180 283 339 325 332 190 217 150 262 197 189 141 24 5 36 48 17 342 337 336 333 330 301 292 294 294 300 312 311 310 321 325 322 317 315 315 315 313 316 312 309 302 308 320 323 322 322 318 313 308 309 313 313 316 316 313 311 311 310 310 310 313 311 310 310 309 311 312 314 315 316 316 313 313 315 315 314 313 310 306 302 303 299 293 288 278 259 243 239
269 57 39 231 188 109 39 5 29 59 53 257 206 318 310 305 23 155 88 94 5 15 16 25 354 332 333 335 325 325 302 283 290 318 327 327 328 326 320 314 314 316 317 316 310 305 303 306 307 313 331 330 326 323 320 317 313 311 310 308 309 311 311 311 310 308 308 306 307 307 307 305 306 307 308 310 311 312 314 310 310 311 313 312 312 313 310 305 302 297 293 292 287 284 272 254 240
58 55 245 92 78 118 125 236 330 56 137 264 31 218 304 22 250 284 19 47 356 6 351 348 325 336 346 325 318 307 294 287 307 320 320 316 321 322 313 303 303 305 307 312 313 311 311 309 317 328 327 328 322 320 317 316 314 311 310 309 307 304 303 303 303 304 304 304 305 306 305 308 308 307 308 307 308 309 310 310 309 309 308 310 310 310 309 303 301 296 291 287 283 278 275 262 247
94 149 159 92 303 317 320 92 355 332 313 287 301 301 254 207 238 182 245 91 340 340 327 346 329 334 325 308 305 308 314 328 326 321 325 330 321 320 311 307 313 320 321 316 312 314 313 321 327 324 323 319 315 314 312 310 308 305 305 305 304 303 300 298 298 297 300 300 302 304 305 303 304 307 307 309 310 309 309 309 309 306 308 308 308 306 307 307 302 297 296 293 289 281 279 274 263
19 18 20 339 102 160 45 204 181 119 262 15 289 43 233 206 223 170 220 181 155 305 320 290 278 278 295 303 310 312 310 297 305 318 314 310 317 323 320 316 318 320 320 320 321 324 331 335 333 328 323 321 318 314 310 308 306 302 300 300 301 299 297 297 297 299 300 298 297 300 304 304 304 304 306 305 306 305 305 304 306 307 306 306 306 306 308 305 307 301 297 298 298 292 281 274 272
331 28 338 356 16 216 107 21 130 179 197 191 275 312 272 263 208 153 188 166 159 235 272 272 282 292 303 302 308 298 288 292 294 294 308 316 316 313 309 311 314 315 315 319 328 334 330 331 329 323 318 314 309 305 302 299 301 299 299 300 300 302 301 301 299 298 296 294 295 298 300 299 299 301 302 304 305 302 301 302 302 303 304 305 305 307 306 306 306 301 297 294 297 298 293 286 277
196 147 88 201 54 19 23 280 21 55 103 238 163 276 253 266 185 142 170 179 199 248 237 280 311 322 318 311 307 292 282 284 299 311 306 303 300 300 303 310 316 320 319 328 336 338 329 324 315 311 310 308 305 301 296 296 294 293 294 296 298 298 299 299 300 300 298 295 295 298 299 299 299 298 300 301 300 299 299 300 301 300 299 301 301 302 305 304 302 301 294 290 296 294 291 287 284